Regional Weather Roundup
Issued by NWS

Home | Current Version | Previous Version | Text Only | Print | Product List | Glossary On
Versions: 1 2 3 4 5 6 7 8 9 10 11 12 13 14 15 16 17 18 19 20 21 22 23 24 25 26 27 28 29 30 31 32 33 34 35 36 37 38 39 40 41 42 43 44 45 46 47 48 49 50
000
ASCA44 KEWX 020720
RWRMX

LATIN AMERICA AND CARIBBEAN REGIONAL WEATHER ROUNDUP
NATIONAL WEATHER SERVICE AUSTIN/SAN ANTONIO TX
100 AM CST MON MAR 02 2015

NOTE: "FAIR" INDICATED FEW OR NO CLOUDS BELOW 12,000 FEET WITH NO
SIGNIFICANT WEATHER AND/OR OBSTRUCTIONS TO VISIBILITY.

BAJA CALIFORNIA

CITY           SKY/WX    TMP DP  RH WIND       PRES   REMARKS
LA PAZ         MOCLDY    68  54  60 CALM      30.08
TIJUANA        LGT RAIN  52  45  76 SE6       29.98S

NORTHWESTERN MEXICO

CITY           SKY/WX    TMP DP  RH WIND       PRES   REMARKS
DURANGO        PTCLDY    52  28  40 SW8       30.32F
HERMOSILLO     CLOUDY    70  59  68 SE3       30.04

NORTHEASTERN MEXICO

CITY           SKY/WX    TMP DP  RH WIND       PRES   REMARKS
CHIHUAHUA      MOCLDY    64  21  19 SW5       30.17
MONTERREY      CLOUDY    54  50  87 CALM      30.23S FOG
REYNOSA        DRIZZLE   54  50  87 N6        30.24  FOG
CD. VICTORIA   PTCLDY    57  50  77 NW7       30.21

WESTERN MEXICO

CITY           SKY/WX    TMP DP  RH WIND       PRES   REMARKS
DEL BAJIO      CLEAR     63  37  39 NE5       30.37R
GUADALAJARA    CLEAR     61  43  51 W3        30.26
MAZATLAN       CLEAR     55  52  88 NE9       30.02S
P. VALLARTA    CLEAR     66  63  88 N3        30.02F
ZACATECAS      CLEAR     48  23  37 CALM      30.36S

CENTRAL MEXICO

CITY           SKY/WX    TMP DP  RH WIND       PRES   REMARKS
MEXICO CITY    CLEAR     61  37  41 NW3       30.41S
MORELIA        CLEAR     54  41  62 CALM      30.31
S. LUIS POTOSI CLEAR     52  45  76 N5        30.33R
TAMPICO        CLOUDY    66  64  94 N12       30.18F
TOLUCA         CLEAR     48  37  66 CALM      30.47F

SOUTHERN MEXICO

CITY           SKY/WX    TMP DP  RH WIND       PRES   REMARKS
ACAPULCO       CLEAR     75  68  78 NW2       29.99F

YUCATAN PENINSULA

CITY           SKY/WX    TMP DP  RH WIND       PRES   REMARKS
CANCUN         PTCLDY    77  73  88 E5        30.16F
COZUMEL        CLEAR     70  70 100 E3        30.15F
MERIDA         CLEAR     73  66  78 E9        30.14F
TAPACHULA      CLEAR     77  73  88 CALM      29.97F

CENTRAL AMERICA

CITY           SKY/WX    TMP DP  RH WIND       PRES   REMARKS

CARIBBEAN

CITY           SKY/WX    TMP DP  RH WIND       PRES   REMARKS
ARUBA          PTCLDY    79  72  78 E14       29.94S
KINGSTON       LGT RAIN  79  72  78 N8        30.00F
NASSAU         PTCLDY    73  66  78 E7        30.24F
SAN JUAN       PTCLDY    75  72  88 E8        30.07F
SANTO DOMINGO  PTCLDY    72  68  88 N5        30.09S
ST. MAARTEN    PTCLDY    77  66  69 E15       30.03F

$$




USA.gov is the U.S. government's official web portal to all federal, state and local government web resources and services.